[[{"header":{"parameterUnit":"m.s-1","parameterCategory":1,"la1":30.2991,"la2":30.254,"lo1":-89.0895,"lo2":-89.0444,"dy":0.0017,"dx":0.0017,"nx":28,"ny":28,"refTime":"2023-09-21T09:00:00:Z","depth":0,"parameterNumber":2,"parameterNumberName":"U-component_of_WINDS"},"data":[0,0,0,0,0,0,0,0,0,0,0,0,0,0,0,0,0,0,0,0,0,0,0,0,0,0,0,0,0,0,0,0,0,0,0,0,0,0,0,0,0,0,0,0,0,0,0,0,0,0,0,0,0,0,0,0,0,0,-4.7293,-4.7293,0,-4.7297,-4.7297,-4.7298,-4.711,-4.7105,-4.71,-4.7095,-4.7101,-4.7106,-4.7111,0,0,0,0,0,0,0,0,0,0,0,0,0,-4.7122,-4.7126,-4.7293,-4.7293,-4.7293,-4.7297,-4.7297,-4.7298,-4.711,-4.7104,-4.7098,-4.7093,-4.71,-4.7105,-4.7111,0,0,0,0,0,0,0,0,0,0,0,0,0,-4.7168,-4.7127,-4.7293,-4.72,-4.7192,-4.7297,-4.7297,-4.7298,-4.7112,-4.7104,-4.7097,-4.709,-4.7098,-4.7105,-4.7112,-4.7307,0,0,-4.7134,-4.7137,0,0,0,0,0,0,0,0,-4.7166,-4.7175,-4.7213,-4.7206,-4.7197,-4.7195,-4.7239,-4.7301,-4.7114,-4.7142,-4.7095,-4.7086,-4.7139,-4.7142,-4.7159,-4.7307,-4.7307,-4.7135,-4.7139,-4.7142,-4.7144,0,0,0,0,0,0,0,-4.7163,-4.7174,-4.7294,-4.7214,-4.7205,-4.7158,-4.7156,-4.725,-4.7183,-4.7139,-4.7125,-4.7129,-4.7133,-4.7153,-4.7158,-4.7308,-4.7135,-4.7141,-4.7145,-4.7148,-4.7614,-4.7622,0,0,0,0,0,0,-4.7172,-4.7172,-4.7294,-4.7295,-4.7163,-4.7167,-4.7165,-4.7204,-4.7181,-4.717,-4.7135,-4.712,-4.7144,-4.715,-4.7158,-4.7384,-4.7142,-4.7149,-4.7153,-4.7607,-4.7616,-4.7625,0,0,0,0,0,0,-4.7169,-4.7185,-4.7294,-4.723,-4.724,-4.7178,-4.7223,-4.7208,-4.7227,-4.7178,-4.7165,-4.7168,-4.7139,-4.7148,-4.7271,-4.7381,-4.7152,-4.7159,-4.7597,-4.7609,-4.7621,-4.7838,0,0,0,0,0,0,-4.7165,-4.7185,-4.7259,-4.7233,-4.7244,-4.7408,-4.7229,-4.7213,-4.724,-4.722,-4.7205,-4.7196,-4.7133,-4.7261,-4.7278,-4.7387,-4.7164,-4.7587,-4.7603,-4.7617,-4.7821,-4.7856,-4.7886,0,0,0,0,0,-4.716,-4.732,-4.7263,-4.7279,-4.7335,-4.7414,-4.7421,-4.7346,-4.725,-4.7323,-4.7291,-4.7196,-4.7367,-4.7275,-4.7293,-4.7406,-4.758,-4.7598,-4.7616,-4.7806,-4.7849,-4.7886,0,0,0,0,0,0,-4.7361,-4.7315,-4.7251,-4.7408,-4.7417,-4.7383,-4.7473,-4.7394,-4.743,-4.741,-4.7315,-4.7314,-4.7452,-4.7441,-4.734,-4.7593,-4.7456,-4.7479,-4.7595,-4.7635,-4.7668,-4.7667,-4.7171,0,0,0,0,0,-4.7424,-4.7492,-4.7448,-4.7591,-4.7598,-4.7536,-4.7567,-4.7508,-4.7513,-4.7516,-4.7493,-4.7502,-4.7557,-4.7596,-4.7644,-4.7818,-4.7812,-4.7905,-4.7937,-4.7965,-4.7985,-4.8076,-4.8116,-4.7684,-4.7684,-4.7684,0,0,-4.7554,-4.7537,-4.7586,-4.7631,-4.763,-4.7703,-4.754,-4.7624,-4.7677,-4.7529,-4.7643,-4.7628,-4.7631,-4.7781,-4.7846,-4.7776,-4.8103,-4.7988,-4.801,-4.8015,-4.8098,-4.8139,-4.8176,-4.7697,-4.7694,-4.7692,0,0,-4.7827,-4.7822,-4.7939,-4.7942,-4.7944,-4.7901,-4.793,-4.7907,-4.7891,-4.8004,-4.7895,-4.7957,-4.8054,-4.8061,-4.8077,-4.8354,-4.8267,-4.8372,-4.8543,-4.8633,-4.8667,-4.8696,-4.8795,-4.8831,-4.8393,-4.8393,-4.8394,0,-4.7989,-4.8094,-4.801,-4.8102,-4.8124,-4.7993,-4.8111,-4.8118,-4.8136,-4.8155,-4.8077,-4.8196,-4.8189,-4.8338,-4.8405,-4.8423,-4.8453,-4.8373,-4.8669,-4.8698,-4.8724,-4.8816,-4.8854,-4.8406,-4.8405,-4.8403,-4.8402,0,-4.8292,-4.8367,-4.8462,-4.8481,-4.8514,-4.8619,-4.8551,-4.8595,-4.8534,-4.85,-4.8617,-4.8604,-4.8647,-4.8678,-4.8619,-4.8819,-4.8776,-4.8685,-4.8545,-4.8779,-4.8864,-4.8899,-4.8424,-4.842,-4.8416,-4.8413,0,0,-4.8692,-4.8664,-4.87,-4.8707,-4.8699,-4.8755,-4.8854,-4.8895,-4.8934,-4.8951,-4.9031,-4.9117,-4.9032,-4.9051,-4.8992,-4.9071,-4.929,-4.8969,-4.8968,-4.9029,-4.9508,-4.9576,-4.9619,-4.9233,-4.9239,-4.9244,-4.9508,0,-4.8957,-4.9123,-4.9051,-4.9224,-4.9292,-4.9169,-4.9254,-4.9259,-4.923,-4.9283,-4.925,-4.9312,-4.9196,-4.9207,-4.9279,-4.9248,-4.9385,-4.9228,-4.9306,-4.931,-4.9308,-4.9663,-4.9735,-4.9984,-4.954,-4.9546,-4.955,0,-4.9288,-4.9318,-4.9499,-4.9477,-4.9503,-4.9582,-4.9613,-4.9666,-4.9668,-4.9641,-4.9663,-4.9585,-4.9681,-4.9543,-4.9673,-4.9568,-4.9595,-4.9585,-4.9593,-4.9596,-4.9444,-4.9676,-5.0062,-5.01,-4.9602,-4.9598,-4.9594,0,-4.9561,-4.9646,-4.9765,-4.9775,-4.9754,-4.9811,-4.9805,-4.98,-4.983,-4.9858,-4.9876,-4.9916,-4.9937,-4.997,-4.9905,-4.9811,-5.0044,-4.9901,-5.0024,-5.0026,-5.0078,-5.0076,-5.0474,-5.0098,-5.0098,-5.0097,-5.0096,0,-4.9864,-4.9979,-4.9887,-4.996,-5.0085,-5.0001,-5.0127,-5.0108,-5.0104,-5.0171,-5.0068,-5.0133,-5.0044,-5.0101,-5.0051,-5.0166,-5.0177,-5.0157,-5.0143,-5.0166,-5.0169,-5.0182,-5.0163,-5.0107,-5.0105,-5.0103,-5.0101,0,-5.019,-5.0133,-5.0254,-5.0224,-5.0219,-5.0312,-5.0286,-5.0353,-5.0316,-5.0402,-5.0417,-5.036,-5.0422,-5.0361,-5.0419,-5.0385,-5.0539,-5.0499,-5.0538,-5.0526,-5.0653,-5.0641,-5.1073,-5.1125,-5.0718,-5.0721,-5.0725,0,-5.0386,-5.0472,-5.0451,-5.0488,-5.0488,-5.0549,-5.0578,-5.0499,-5.0534,-5.0543,-5.0609,-5.0661,-5.0698,-5.0802,-5.0766,-5.081,-5.077,-5.0918,-5.0776,-5.0797,-5.0771,-5.0766,-5.0774,-5.0947,-5.0952,-5.0956,-5.0959,0,-5.0741,-5.0708,-5.0754,-5.0791,-5.0829,-5.0854,-5.0871,-5.0908,-5.0825,-5.087,-5.0931,-5.096,-5.1019,-5.1072,-5.1105,-5.1098,-5.1016,-5.1004,-5.1035,-5.1059,-5.1078,-5.1069,-5.0616,-5.0995,-5.0991,-5.0988,-5.0987,-5.0985,-5.1007,-5.1076,-5.1072,-5.1127,-5.1131,-5.115,-5.121,-5.1181,-5.1231,-5.1272,-5.1222,-5.1297,-5.1297,-5.1332,-5.1336,-5.1393,-5.1331,-5.1375,-5.1386,-5.1399,-5.1417,-5.107,-5.1399,-5.1398,-5.1397,-5.1396,-5.1395,0,-5.1355,-5.1346,-5.1397,-5.1424,-5.1467,-5.1385,-5.14,-5.1442,-5.1509,-5.1515,-5.1554,-5.1625,-5.1676,-5.1644,-5.1688,-5.174,-5.1703,-5.1754,-5.1749,-5.1749,-5.1471,-5.1439,-5.1783,-5.1783,-5.1783,-5.1783,-5.1783,-5.1783,-5.1541,-5.1654,-5.1622,-5.1736,-5.1726,-5.1799,-5.1814,-5.1831,-5.1835,-5.1918,-5.196,-5.1939,-5.193,-5.1972,-5.2016,-5.2005,-5.2025,-5.209,-5.2066,-5.1807,-5.1768,-5.1732,-5.1702,-5.2095,-5.2096,-5.2339,-5.2341,-5.2343]},{"header":{"parameterUnit":"m.s-1","parameterCategory":1,"la1":30.2991,"la2":30.254,"lo1":-89.0895,"lo2":-89.0444,"dy":0.0017,"dx":0.0017,"nx":28,"ny":28,"refTime":"2023-09-21T09:00:00:Z","depth":0,"parameterNumber":3,"parameterNumberName":"V-component_of_WINDS"},"data":[0,0,0,0,0,0,0,0,0,0,0,0,0,0,0,0,0,0,0,0,0,0,0,0,0,0,0,0,0,0,0,0,0,0,0,0,0,0,0,0,0,0,0,0,0,0,0,0,0,0,0,0,0,0,0,0,0,0,-2.7012,-2.7013,0,-2.7053,-2.7054,-2.7054,-2.7039,-2.7038,-2.7037,-2.7036,-2.7075,-2.7077,-2.7079,0,0,0,0,0,0,0,0,0,0,0,0,0,-2.6916,-2.6918,-2.7012,-2.7013,-2.7013,-2.7053,-2.7054,-2.7054,-2.7039,-2.7038,-2.7036,-2.7035,-2.7075,-2.7077,-2.7079,0,0,0,0,0,0,0,0,0,0,0,0,0,-2.6958,-2.6919,-2.7012,-2.701,-2.7011,-2.7053,-2.7054,-2.7054,-2.7039,-2.7038,-2.7036,-2.7035,-2.7074,-2.7077,-2.7079,-2.7125,0,0,-2.7088,-2.7089,0,0,0,0,0,0,0,0,-2.6955,-2.6961,-2.701,-2.7011,-2.7011,-2.7039,-2.7034,-2.7078,-2.7039,-2.7028,-2.7036,-2.7034,-2.7064,-2.7068,-2.7078,-2.7127,-2.7129,-2.7088,-2.709,-2.7091,-2.7092,0,0,0,0,0,0,0,-2.6953,-2.6959,-2.7028,-2.7011,-2.7011,-2.7006,-2.7011,-2.7043,-2.7053,-2.7029,-2.7028,-2.7033,-2.7064,-2.7076,-2.7079,-2.7129,-2.7088,-2.7091,-2.7093,-2.7094,-2.7215,-2.7216,0,0,0,0,0,0,-2.695,-2.6957,-2.7027,-2.703,-2.6979,-2.7009,-2.7014,-2.7032,-2.7053,-2.7055,-2.7034,-2.7032,-2.7072,-2.7076,-2.7081,-2.7134,-2.7091,-2.7094,-2.7096,-2.7213,-2.7215,-2.7217,0,0,0,0,0,0,-2.6948,-2.6957,-2.7025,-2.6993,-2.7002,-2.7012,-2.7032,-2.7033,-2.7045,-2.7057,-2.7059,-2.7044,-2.7071,-2.7077,-2.7114,-2.7135,-2.7095,-2.7098,-2.7212,-2.7214,-2.7216,-2.7242,0,0,0,0,0,0,-2.6945,-2.6956,-2.6975,-2.6994,-2.7003,-2.7059,-2.7034,-2.7035,-2.705,-2.7048,-2.7067,-2.7069,-2.707,-2.711,-2.7117,-2.7138,-2.71,-2.721,-2.7213,-2.7215,-2.7239,-2.7245,-2.725,0,0,0,0,0,-2.6942,-2.698,-2.6976,-2.6984,-2.7027,-2.7061,-2.7066,-2.7067,-2.7052,-2.707,-2.7077,-2.7068,-2.7132,-2.7114,-2.7121,-2.7144,-2.7208,-2.7212,-2.7215,-2.7237,-2.7244,-2.725,0,0,0,0,0,0,-2.6963,-2.6983,-2.6978,-2.7024,-2.7041,-2.7058,-2.7081,-2.7075,-2.7096,-2.7093,-2.7093,-2.7097,-2.7135,-2.7143,-2.7123,-2.7188,-2.7168,-2.7173,-2.7182,-2.7188,-2.7193,-2.719,-2.7103,0,0,0,0,0,-2.6973,-2.7,-2.7015,-2.7054,-2.7063,-2.707,-2.7085,-2.7084,-2.7102,-2.7109,-2.7119,-2.7135,-2.7158,-2.7174,-2.7196,-2.7241,-2.7243,-2.726,-2.7265,-2.7269,-2.7274,-2.7296,-2.7303,-2.7228,-2.7228,-2.7228,0,0,-2.6994,-2.7008,-2.7025,-2.7058,-2.7072,-2.7098,-2.7077,-2.7106,-2.7125,-2.7113,-2.7148,-2.7156,-2.7174,-2.7215,-2.7233,-2.7223,-2.7295,-2.7274,-2.7277,-2.7279,-2.73,-2.7307,-2.7313,-2.723,-2.723,-2.7229,0,0,-2.7045,-2.7059,-2.7092,-2.7105,-2.7125,-2.713,-2.7138,-2.7156,-2.7161,-2.7197,-2.7188,-2.7209,-2.725,-2.7263,-2.7275,-2.7328,-2.732,-2.7335,-2.7362,-2.7384,-2.739,-2.7395,-2.7412,-2.7419,-2.734,-2.734,-2.734,0,-2.7068,-2.7108,-2.7109,-2.7139,-2.7153,-2.7144,-2.7176,-2.7188,-2.7215,-2.7224,-2.7212,-2.7262,-2.7274,-2.7316,-2.7329,-2.7339,-2.7347,-2.7333,-2.7389,-2.7394,-2.7399,-2.7416,-2.7422,-2.7341,-2.7341,-2.7341,-2.7341,0,-2.7134,-2.7162,-2.7186,-2.7212,-2.7229,-2.7259,-2.7264,-2.728,-2.7278,-2.7283,-2.7318,-2.7332,-2.7356,-2.7366,-2.7364,-2.7407,-2.74,-2.7389,-2.7368,-2.7408,-2.7423,-2.743,-2.7344,-2.7343,-2.7343,-2.7342,0,0,-2.7201,-2.7225,-2.7234,-2.7245,-2.7265,-2.7286,-2.7315,-2.7339,-2.7353,-2.7371,-2.7394,-2.7428,-2.7417,-2.743,-2.7429,-2.7448,-2.7488,-2.7434,-2.7434,-2.7442,-2.7534,-2.7542,-2.7549,-2.7482,-2.7484,-2.7485,-2.7532,0,-2.7252,-2.7305,-2.7306,-2.7353,-2.7377,-2.7368,-2.7393,-2.7408,-2.7413,-2.7433,-2.7439,-2.7462,-2.7447,-2.7454,-2.7473,-2.7479,-2.7506,-2.7476,-2.7502,-2.7503,-2.7497,-2.7558,-2.7567,-2.7611,-2.7538,-2.754,-2.754,0,-2.732,-2.734,-2.739,-2.7405,-2.7415,-2.7438,-2.7459,-2.7479,-2.7494,-2.7496,-2.751,-2.7506,-2.7534,-2.7512,-2.755,-2.7529,-2.754,-2.7545,-2.7546,-2.7548,-2.7524,-2.756,-2.7625,-2.7632,-2.755,-2.7549,-2.7549,0,-2.7361,-2.74,-2.7435,-2.7444,-2.7463,-2.7479,-2.7487,-2.7502,-2.7515,-2.7533,-2.7541,-2.7562,-2.7573,-2.7589,-2.7589,-2.7574,-2.7627,-2.7606,-2.7628,-2.7628,-2.7639,-2.7638,-2.7706,-2.7648,-2.7648,-2.7648,-2.7648,0,-2.7418,-2.7448,-2.7453,-2.7474,-2.7507,-2.7507,-2.754,-2.7547,-2.7559,-2.758,-2.7573,-2.7593,-2.7593,-2.7612,-2.7613,-2.7643,-2.7648,-2.765,-2.7649,-2.765,-2.765,-2.7656,-2.7653,-2.765,-2.7649,-2.7649,-2.7649,0,-2.747,-2.7474,-2.7511,-2.7526,-2.753,-2.7553,-2.7565,-2.7584,-2.7588,-2.7615,-2.7621,-2.7627,-2.765,-2.7652,-2.7678,-2.7678,-2.7714,-2.7711,-2.7709,-2.7708,-2.773,-2.7728,-2.7804,-2.7813,-2.775,-2.7751,-2.7751,0,-2.7505,-2.7529,-2.7545,-2.7559,-2.7568,-2.7591,-2.7604,-2.7605,-2.7619,-2.7637,-2.7654,-2.7676,-2.7693,-2.7729,-2.7735,-2.7755,-2.7751,-2.7776,-2.7754,-2.7753,-2.775,-2.7748,-2.775,-2.7781,-2.7781,-2.7782,-2.7782,0,-2.7568,-2.7568,-2.7589,-2.7609,-2.7626,-2.7642,-2.7657,-2.7669,-2.767,-2.7687,-2.771,-2.7723,-2.7749,-2.7771,-2.7789,-2.7797,-2.7789,-2.7789,-2.7795,-2.7796,-2.7793,-2.7793,-2.772,-2.7787,-2.7787,-2.7787,-2.7786,-2.7786,-2.7611,-2.7631,-2.7645,-2.7667,-2.7679,-2.7693,-2.7711,-2.7717,-2.7736,-2.7758,-2.7757,-2.7782,-2.7794,-2.7819,-2.7828,-2.7846,-2.7837,-2.7847,-2.7849,-2.7851,-2.7852,-2.7791,-2.785,-2.7849,-2.7849,-2.7849,-2.7849,0,-2.7672,-2.768,-2.7701,-2.7722,-2.7739,-2.7731,-2.7747,-2.7761,-2.7784,-2.7797,-2.7814,-2.7839,-2.7859,-2.7866,-2.7886,-2.7899,-2.7896,-2.7904,-2.7902,-2.7904,-2.786,-2.7852,-2.7906,-2.7906,-2.7906,-2.7906,-2.7906,-2.7906,-2.7705,-2.7737,-2.7739,-2.7776,-2.7784,-2.7808,-2.7818,-2.783,-2.784,-2.7869,-2.7885,-2.789,-2.79,-2.792,-2.7937,-2.7939,-2.7945,-2.7954,-2.7954,-2.7913,-2.7907,-2.7902,-2.7894,-2.7956,-2.7956,-2.7997,-2.7997,-2.7997]}]]